User: anonymous   Login
Location: Unspecified
(0.0000°N, 0.0000°E)
Time: 19:49:39
(UTC+00:00)
Language:

ARIANE 5 R/B - Orbit

View from above orbital plane
View from above orbital plane
View from above satellite
View from above satellite

Ground track
Ground track

The orbit data is extracted from the following two-line orbital elements,

1 43176U 18012C   24137.68885646  .00004505  00000-0  96427-3 0  9996
2 43176  20.8025 226.4597 7527463  81.6407 349.3212  1.98848245 43948
Epoch (UTC): 16 May 2024 16:31:57
Eccentricity: 0.7527463
inclination: 20.8025°
perigee height: 227 km
apogee height: 40442 km
right ascension of ascending node: 226.4597°
argument of perigee: 81.6407°
revolutions per day: 1.98848245
mean anomaly at epoch: 349.3212°
orbit number at epoch: 4394

The dashed part of the orbit path shows where the satellite is in the earth's shadow,  

DLR